Torna al catalogo

ROCK

AttivoScienzaSSO
NORAD 60474·PAYLOAD·🇺🇸 United States

Lanciato Aug 16, 2024 da Vandenberg Space Force Base

Loading…

Prossimi Passaggi (prossime 24 ore)

TLE

AggiornatoSource: Space-Track

Epoca: Sep 14, 2026, 12:57 UTC

1 60474U 24149G   26257.53996580  .00012770  00000-0  30124-3 0  9998
2 60474  97.3724 341.7451 0000231 325.6678  34.4554 15.42025566116024

Traccia ROCK in tempo reale con AllMySat

Download on the App Store